Weather History for Ekofisk, Norway

Change the Weather History Date:

Wednesday, December 12, 2012

  Actual Average Record
Temperature  
Mean Temperature 38 °F -  
Max Temperature 42 °F 45 °F 51 °F (1997)
Min Temperature 35 °F 41 °F 35 °F (2012)
Degree Days  
Heating Degree Days 26    
Moisture  
Dew Point 32 °F    
Average Humidity 80    
Maximum Humidity 93    
Minimum Humidity 61    
Precipitation  
Precipitation 0.00 in - - ()
Sea Level Pressure  
Sea Level Pressure 29.97 in    
Wind  
Wind Speed 11 mph ()    
Max Wind Speed 20 mph    
Max Gust Speed -    
Visibility 6.6 miles    
Events Rain , Snow    
Averages and records for this station are not official NWS values.
T = Trace of Precipitation, MM = Missing Value Source: Averaged Metar Reports

Daily Weather History Graph

Daily Weather History Graph

Search for Another Location

Airport:

Trip Planner

Search our weather history database for the weather conditions in past years. The results will help you decide how hot, cold, wet, or windy it might be!

Date:

Astronomy

Dec. 12, 2012 Rise Set
Actual Time 9:13 AM CET 4:08 PM CET
Civil Twilight 8:25 AM CET 4:56 PM CET
Nautical Twilight 7:35 AM CET 5:46 PM CET
Astronomical Twilight 6:49 AM CET 6:32 PM CET
Moon 7:54 AM CET (12/12) 3:34 PM CET (12/12)
Length of Visible Light 8h 31m
Length of Day
6h 54m
Waning Crescent, 1% of the Moon is Illuminated
Dec 12
Waning Crescent
Dec 13
New
Dec 20
First Quarter
Dec 28
Full
Jan 5
Last Quarter

Hourly Weather History & Observations

Time (CET) Temp. Windchill Dew Point Humidity Pressure Visibility Wind Dir Wind Speed Gust Speed Precip Events Conditions
12:20 AM 37.4 °F 28.5 °F 32.0 °F 81% 30.12 in 6.2 mi NNE 15.0 mph - N/A   Partly Cloudy
12:50 AM 39.2 °F 31.6 °F 32.0 °F 75% 30.12 in 6.2 mi North 12.7 mph - N/A   Partly Cloudy
1:00 AM 40 °F - 31 °F 61% 30.14 in 31 mi North 8.9 mph - -   Partly Cloudy
1:20 AM 39.2 °F 31.6 °F 30.2 °F 70% 30.12 in 6.2 mi North 12.7 mph - N/A   Light Small Hail Showers
1:50 AM 39.2 °F 31.6 °F 32.0 °F 75% 30.09 in 6.2 mi NNW 12.7 mph - N/A   Scattered Clouds
2:20 AM 37.4 °F 30.3 °F 30.2 °F 75% 30.09 in 6.2 mi NNW 10.4 mph - N/A   Scattered Clouds
2:50 AM 39.2 °F 31.2 °F 32.0 °F 75% 30.09 in 6.2 mi NNW 13.8 mph - N/A   Scattered Clouds
3:20 AM 39.2 °F 32.0 °F 32.0 °F 75% 30.09 in 6.2 mi NNW 11.5 mph - N/A   Partly Cloudy
3:50 AM 39.2 °F 31.2 °F 28.4 °F 65% 30.06 in 6.2 mi NW 13.8 mph - N/A   Partly Cloudy
4:20 AM 39.2 °F 31.2 °F 30.2 °F 70% 30.06 in 6.2 mi NW 13.8 mph - N/A   Partly Cloudy
4:50 AM 39.2 °F 30.8 °F 28.4 °F 65% 30.06 in 6.2 mi NW 15.0 mph - N/A   Partly Cloudy
5:20 AM 39.2 °F 31.6 °F 32.0 °F 75% 30.04 in 6.2 mi NW 12.7 mph - N/A   Partly Cloudy
5:50 AM 39.2 °F 32.0 °F 32.0 °F 75% 30.04 in 6.2 mi NW 11.5 mph - N/A   Partly Cloudy
6:20 AM 39.2 °F 32.0 °F 30.2 °F 70% 30.04 in 6.2 mi WNW 11.5 mph - N/A   Partly Cloudy
6:50 AM 39.2 °F 32.5 °F 30.2 °F 70% 30.04 in 6.2 mi NW 10.4 mph - N/A   Partly Cloudy
7:00 AM 39 °F - 30 °F 61% 30.04 in 12 mi NW 6.7 mph - -   Partly Cloudy
7:20 AM 39.2 °F 33.0 °F 30.2 °F 70% 30.01 in 6.2 mi NW 9.2 mph - N/A   Partly Cloudy
7:50 AM 37.4 °F 29.3 °F 32.0 °F 81% 30.01 in 6.2 mi NNE 12.7 mph - N/A   Scattered Clouds
8:20 AM 37.4 °F 32.8 °F 32.0 °F 81% 30.01 in 6.2 mi NNE 5.8 mph - N/A   Scattered Clouds
8:50 AM 37.4 °F - 32.0 °F 81% 30.01 in 6.2 mi Variable 1.2 mph - N/A   Scattered Clouds
9:20 AM 37.4 °F 34.9 °F 32.0 °F 81% 30.01 in 6.2 mi South 3.5 mph - N/A   Partly Cloudy
9:50 AM 39.2 °F 37.0 °F 32.0 °F 75% 30.01 in 6.2 mi SSW 3.5 mph - N/A   Partly Cloudy
10:20 AM 39.2 °F 34.2 °F 32.0 °F 75% 29.98 in 6.2 mi SSW 6.9 mph - N/A   Partly Cloudy
10:50 AM 41.0 °F 35.8 °F 30.2 °F 65% 29.98 in 6.2 mi SSW 8.1 mph - N/A   Scattered Clouds
11:20 AM 42.8 °F 38.0 °F 30.2 °F 61% 29.98 in 6.2 mi SSW 8.1 mph - N/A   Scattered Clouds
12:20 PM 39.2 °F 31.2 °F 30.2 °F 70% 29.95 in 6.2 mi SW 13.8 mph - N/A   Mostly Cloudy
12:50 PM 41.0 °F 33.5 °F 30.2 °F 65% 29.95 in 6.2 mi SW 13.8 mph - N/A   Mostly Cloudy
1:00 PM 40 °F - 33 °F 67% 29.96 in 12 mi WSW 15.7 mph - -   Partly Cloudy
1:20 PM 39.2 °F 29.6 °F 33.8 °F 81% 29.95 in 6.2 mi West 19.6 mph - N/A Rain Light Rain Showers
1:50 PM 37.4 °F 29.3 °F 33.8 °F 87% 29.95 in 6.2 mi SW 12.7 mph - N/A   Mostly Cloudy
2:20 PM 37.4 °F 27.8 °F 33.8 °F 87% 29.92 in 6.2 mi SSW 17.3 mph - N/A   Mostly Cloudy
2:50 PM 37.4 °F 28.5 °F 35.6 °F 93% 29.92 in 6.2 mi SSW 15.0 mph - N/A Rain Light Rain Showers
3:20 PM 37.4 °F 27.5 °F 33.8 °F 87% 29.92 in 6.2 mi SW 18.4 mph - N/A Rain Light Rain Showers
3:50 PM 35.6 °F 26.2 °F 33.8 °F 93% 29.89 in 6.2 mi SSW 15.0 mph - N/A   Mostly Cloudy
4:20 PM 35.6 °F 27.1 °F 33.8 °F 93% 29.89 in 6.2 mi SSW 12.7 mph - N/A   Mostly Cloudy
4:50 PM 35.6 °F 27.5 °F 33.8 °F 93% 29.89 in 6.2 mi South 11.5 mph - N/A   Mostly Cloudy
5:20 PM 37.4 °F 29.8 °F 35.6 °F 93% 29.89 in 6.2 mi South 11.5 mph - N/A   Mostly Cloudy
5:50 PM 37.4 °F 28.9 °F 35.6 °F 93% 29.86 in 6.2 mi SSW 13.8 mph - N/A   Mostly Cloudy
6:20 PM 37.4 °F 28.9 °F 35.6 °F 93% 29.86 in 6.2 mi SSW 13.8 mph - N/A   Mostly Cloudy
6:50 PM 35.6 °F 27.1 °F 33.8 °F 93% 29.86 in 6.2 mi WSW 12.7 mph - N/A Rain , Snow Light Rain Showers
7:10 PM 36 °F - 34 °F 87% 29.89 in 12 mi SSW 11.2 mph - - Snow Light Snow Showers
7:20 PM 35.6 °F 27.1 °F 33.8 °F 93% 29.86 in 6.2 mi SSW 12.7 mph - N/A Rain , Snow Light Rain Showers
7:50 PM 35.6 °F 29.9 °F 33.8 °F 93% 29.86 in 6.2 mi SSW 6.9 mph - N/A   Mostly Cloudy
8:20 PM 37.4 °F 32.8 °F 33.8 °F 87% 29.86 in 6.2 mi SSW 5.8 mph - N/A   Mostly Cloudy
8:50 PM 37.4 °F 31.4 °F 35.6 °F 93% 29.86 in 6.2 mi SW 8.1 mph - N/A   Mostly Cloudy
9:20 PM 37.4 °F 31.4 °F 35.6 °F 93% 29.83 in 6.2 mi WSW 8.1 mph - N/A   Mostly Cloudy
10:20 PM 39.2 °F 32.5 °F 33.8 °F 81% 29.83 in 6.2 mi SW 10.4 mph - N/A   Scattered Clouds
10:50 PM 37.4 °F 28.9 °F 33.8 °F 87% 29.83 in 6.2 mi WSW 13.8 mph - N/A   Scattered Clouds
11:20 PM 37.4 °F 30.8 °F 33.8 °F 87% 29.83 in 6.2 mi WSW 9.2 mph - N/A   Scattered Clouds
11:50 PM 37.4 °F 30.8 °F 32.0 °F 81% 29.83 in 6.2 mi SW 9.2 mph - N/A   Scattered Clouds